Warning: Javascript must be enabled to use all the features on this page!


Page Loading - Please Wait...

Click to hideNews Bulletins

USGS 04189260 Blanchard River at Ottawa OH

PROVISIONAL DATA SUBJECT TO REVISION

Click to hidestation-specific text
Funding for this site is provided by:

 

> WaterNow – get the latest gage data from your mobile phone or email.
> Rating Information
Available Parameters Available Period
All 2 Available Parameters for this site
  
00060 Discharge 2009-10-01  2017-09-23
00065 Gage height 2017-05-26  2017-09-23

Graph
Graph w/ stats
Graph w/o stats
Graph w/ (up to 3) parms
Table
Tab-separated
Days  (7)
 

  -- or --
Begin date
 

End date
 

Summary of all available data for this site
Instantaneous-data availability statement
Gage height, feet
TIMESep 16Sep 17Sep 18Sep 19Sep 20Sep 21Sep 22Sep 23
00:00 EDT5.00P  4.91P  4.84P  4.82P  5.36P  6.09P  5.65P  5.21P  
00:30 EDT4.99P  4.91P  4.84P  4.82P  5.35P  6.08P  5.64P  5.20P  
01:00 EDT4.99P  4.90P  4.84P  4.82P  5.34P  6.08P  5.63P  5.19P  
01:30 EDT4.99P  4.90P  4.84P  4.82P  5.33P  6.07P  5.62P  5.19P  
02:00 EDT4.98P  4.90P  4.84P  4.82P  5.33P  6.06P  5.61P  5.18P  
02:30 EDT4.98P  4.90P  4.84P  4.82P  5.32P  6.05P  5.60P  5.18P  
03:00 EDT4.98P  4.90P  4.84P  4.82P  5.32P  6.04P  5.59P  5.17P  
03:30 EDT4.98P  4.90P  4.84P  4.82P  5.32P  6.03P  5.59P  5.17P  
04:00 EDT4.98P  4.90P  4.84P  4.82P  5.32P  6.01P  5.58P  5.16P  
04:30 EDT4.98P  4.90P  4.83P  4.82P  5.33P  6.01P  5.57P  5.15P  
05:00 EDT4.98P  4.90P  4.83P  4.82P  5.35P  5.99P  5.56P  5.15P  
05:30 EDT4.98P  4.90P  4.84P  4.82P  5.37P  5.98P  5.55P  5.15P  
06:00 EDT4.97P  4.90P  4.83P  4.82P  5.41P  5.97P  5.54P  5.14P  
06:30 EDT4.97P  4.90P  4.83P  4.83P  5.45P  5.96P  5.53P  5.14P  
07:00 EDT4.97P  4.89P  4.83P  4.82P  5.50P  5.94P  5.52P  5.13P  
07:30 EDT4.97P  4.89P  4.83P  4.82P  5.55P  5.93P  5.51P  5.13P  
08:00 EDT4.97P  4.89P  4.83P  4.82P  5.59P  5.92P  5.50P  5.13P  
08:30 EDT4.96P  4.89P  4.83P  4.83P  5.64P  5.91P  5.50P  5.12P  
09:00 EDT4.96P  4.89P  4.83P  4.84P  5.69P  5.89P  5.49P  5.12P  
09:30 EDT4.96P  4.89P  4.83P  4.98P  5.73P  5.89P  5.48P  5.11P  
10:00 EDT4.96P  4.89P  4.83P  5.06P  5.77P  5.88P  5.47P  5.11P  
10:30 EDT4.96P  4.89P  4.83P  5.12P  5.80P  5.87P  5.46P  5.10P  
11:00 EDT4.96P  4.89P  4.83P  5.11P  5.84P  5.86P  5.45P  5.10P  
11:30 EDT4.95P  4.89P  4.83P  5.09P  5.86P  5.85P  5.45P  5.10P  
12:00 EDT4.95P  4.88P  4.83P  5.08P  5.89P  5.84P  5.44P  5.09P  
12:30 EDT4.95P  4.88P  4.83P  5.07P  5.92P  5.83P  5.43P  5.09P  
13:00 EDT4.95P  4.88P  4.83P  5.06P  5.94P  5.82P  5.42P   
13:30 EDT4.95P  4.88P  4.83P  5.09P  5.97P  5.81P  5.42P   
14:00 EDT4.94P  4.88P  4.83P  5.19P  5.99P  5.81P  5.41P   
14:30 EDT4.94P  4.88P  4.83P  5.21P  6.01P  5.80P  5.41P   
15:00 EDT4.94P  4.87P  4.83P  5.22P  6.02P  5.79P  5.40P   
15:30 EDT4.94P  4.87P  4.83P  5.24P  6.03P  5.78P  5.40P   
16:00 EDT4.94P  4.87P  4.82P  5.25P  6.05P  5.78P  5.39P   
16:30 EDT4.93P  4.87P  4.82P  5.33P  6.06P  5.77P  5.38P   
17:00 EDT4.93P  4.87P  4.82P  5.37P  6.07P  5.76P  5.37P   
17:30 EDT4.93P  4.86P  4.82P  5.38P  6.08P  5.75P  5.36P   
18:00 EDT4.93P  4.86P  4.82P  5.39P  6.09P  5.74P  5.35P   
18:30 EDT4.93P  4.86P  4.82P  5.40P  6.10P  5.74P  5.34P   
19:00 EDT4.92P  4.86P  4.82P  5.40P  6.11P  5.73P  5.32P   
19:30 EDT4.92P  4.86P  4.82P  5.40P  6.12P  5.72P  5.31P   
20:00 EDT4.92P  4.86P  4.82P  5.41P  6.12P  5.71P  5.29P   
20:30 EDT4.92P  4.85P  4.82P  5.40P  6.12P  5.70P  5.28P   
21:00 EDT4.92P  4.85P  4.82P  5.40P  6.12P  5.70P  5.27P   
21:30 EDT4.91P  4.85P  4.82P  5.40P  6.12P  5.69P  5.25P   
22:00 EDT4.91P  4.85P  4.82P  5.39P  6.12P  5.68P  5.24P   
22:30 EDT4.91P  4.85P  4.82P  5.38P  6.11P  5.67P  5.24P   
23:00 EDT4.91P  4.85P  4.82P  5.38P  6.10P  5.66P  5.22P   
23:30 EDT4.91P  4.85P  4.82P  5.37P  6.10P  5.65P  5.22P   
COUNT4848484848484826
MAX5.004.914.845.416.126.095.655.21
MIN4.914.854.824.825.325.655.225.09

Explanation
  P  Provisional data subject to revision.